Location: Lake Sonoma
(38.7200°N, 123.0564°W)
Time: 21:17:43
(UTC-07:00)

Amateur Radio Satellites - All Passes

Search period start: 01 August 2015 20:47
Search period end: 02 August 2015 20:47
Location: Lake Sonoma, 38.7200°N, 123.0564°W

Satellite Date Start Highest point End Downlink Frequencies (MHz)
Time Altitude Azimuth
PHONESAT 2.4 01 Aug 20:55:34 20:59:04 68° 161° (SSE) 21:02:34 2401.200-2431.200
ZACube-1 01 Aug 21:25:43 21:28:47 21° 69° (ENE) 21:32:02 437.345
COMPASS 1 01 Aug 21:30:00 21:34:12 76° 258° (WSW) 21:38:27 437.405
DOVE 4 01 Aug 21:38:28 21:42:08 29° 264° (W) 21:45:45 437.250
CINEMA 3 01 Aug 21:41:37 21:45:44 66° 260° (W) 21:49:56 145.822/145.860
FUNcube-1 01 Aug 21:46:17 21:50:02 33° 72° (ENE) 21:53:55 145.935
SEEDS 01 Aug 21:46:39 21:50:36 37° 263° (W) 21:54:34 437.485
UWE-3 01 Aug 21:50:12 21:54:14 51° 74° (ENE) 21:58:25 435.000/436.395/437.385
CUTE 1.7 + AOD 2 01 Aug 21:51:08 21:54:49 27° 265° (W) 21:58:27 437.475
DELFI C3 01 Aug 21:51:46 21:55:37 44° 74° (ENE) 21:59:32 145.870
AUBIESAT-1 01 Aug 21:53:48 21:55:58 13° 93° (E) 21:58:20 437.475
GOMX 1 01 Aug 21:56:07 21:57:45 12° 270° (W) 21:59:09 467.674
Oscar 11 01 Aug 21:57:13 22:01:32 81° 77° (ENE) 22:05:55 145.826/435.025
CANX-2 01 Aug 22:00:16 22:03:27 20° 268° (W) 22:06:32 2200.000
UKube-1 01 Aug 22:00:59 22:03:10 14° 66° (ENE) 22:05:33 .
HUMSAT D 01 Aug 22:05:57 22:09:12 23° 70° (ENE) 22:12:34 437.325/437.525
CUBEBUG 2 01 Aug 22:07:15 22:11:25 76° 258° (WSW) 22:15:42 437.445
VERMONT LUNAR 01 Aug 22:07:52 22:11:03 85° 12° (NNE) 22:14:13 437.305
AISAT 01 Aug 22:09:47 22:11:12 12° 64° (ENE) 22:12:51 437.250
AAUSAT CUBESAT 2 01 Aug 22:11:27 22:15:08 29° 264° (W) 22:18:49 437.432
ISS 01 Aug 22:14:41 22:17:35 29° 330° (NNW) 22:20:29 145.825
RS-15 01 Aug 22:15:04 22:25:59 90° 104° (ESE) 22:37:19 29.354- 29.394
DX 1 01 Aug 22:28:32 22:32:20 31° 71° (ENE) 22:36:11 434.975-435.025
AIST 1 01 Aug 22:29:18 22:30:08 11° 68° (ENE) 22:31:15
HO-68 01 Aug 22:32:43 22:37:53 20° 269° (W) 22:42:44 435.675
PHONESAT 2.4 01 Aug 22:33:36 22:37:06 63° 357° (N) 22:40:35 2401.200-2431.200
UNISAT 6 01 Aug 22:37:58 22:40:22 14° 90° (E) 22:43:01 437.425
VELOX 1 01 Aug 22:46:02 22:49:45 28° 70° (ENE) 22:53:31 145.980
BEESAT 3 01 Aug 22:48:20 22:50:47 16° 111° (ESE) 22:53:25 437.485
M-CUBED/EXP-1 PRIME 01 Aug 22:57:44 23:02:34 78° 108° (ESE) 23:07:14 437.505
ESTCUBE 1 01 Aug 23:00:46 23:04:37 28° 70° (ENE) 23:08:32 437.505/2401.250
ZACube-1 01 Aug 23:01:15 23:04:59 30° 264° (W) 23:08:45 437.345
DUCHIFAT 1 01 Aug 23:13:51 23:14:27 10° 89° (E) 23:15:20 145.980
50 SAT 01 Aug 23:14:36 23:18:27 67° 76° (ENE) 23:22:21 437.505
QB50P1 01 Aug 23:16:49 23:18:28 12° 90° (E) 23:20:22 145.935-145.965
NANOSAT C BR1 01 Aug 23:17:41 23:19:21 12° 90° (E) 23:21:15 145.865
Cosmos 2491 01 Aug 23:18:55 23:27:03 43° 74° (ENE) 23:35:16 435.465 / 435.565
TIGRISAT 01 Aug 23:19:25 23:23:48 38° 97° (E) 23:28:12 435.000
ANTELSAT 01 Aug 23:21:32 23:25:59 42° 98° (E) 23:30:28 437.575/2403.000
FUNcube-1 01 Aug 23:23:32 23:26:31 18° 268° (W) 23:29:24 145.935
AUBIESAT-1 01 Aug 23:26:25 23:31:08 62° 290° (WNW) 23:35:39 437.475
DELFI C3 01 Aug 23:28:59 23:30:59 13° 270° (W) 23:32:47 145.870
UWE-3 01 Aug 23:29:29 23:31:12 12° 271° (W) 23:32:41 435.000/436.395/437.385
UKube-1 01 Aug 23:34:44 23:38:56 50° 260° (W) 23:43:08 .
YUBILEINY 01 Aug 23:39:56 23:46:26 25° 83° (E) 23:53:18 435.215
HUMSAT D 01 Aug 23:41:20 23:44:51 26° 265° (W) 23:48:21 437.325/437.525
AISAT 01 Aug 23:42:55 23:47:18 65° 259° (W) 23:51:40 437.250
VERMONT LUNAR 01 Aug 23:44:53 23:47:34 25° 209° (SSW) 23:50:14 437.305
BEESAT 2 01 Aug 23:45:46 23:49:45 55° 118° (ESE) 23:53:48 435.950
AIST 2 01 Aug 23:49:00 23:50:39 12° 109° (ESE) 23:52:31 435.215
CUBEBUG 1 01 Aug 23:54:22 23:58:43 89° 257° (WSW) 00:03:05 437.445
ISS 01 Aug 23:54:37 23:54:52 10° 350° (N) 23:55:06 145.825
POLYITAN 1 01 Aug 23:58:29 00:02:30 39° 98° (E) 00:06:32 437.675
AIST 1 02 Aug 00:04:06 00:08:17 57° 266° (W) 00:12:27
DX 1 02 Aug 00:05:15 00:08:38 21° 266° (W) 00:11:55 434.975-435.025
PHONESAT 2.4 02 Aug 00:11:40 00:15:12 88° 185° (S) 00:18:42 2401.200-2431.200
UNISAT 6 02 Aug 00:12:55 00:17:31 54° 286° (WNW) 00:22:07 437.425
BUGSAT 1 02 Aug 00:14:46 00:18:30 34° 97° (E) 00:22:16 437.445
POPSAT HIP 1 02 Aug 00:15:03 00:19:16 60° 100° (E) 00:23:30 437.405
VELOX 1 02 Aug 00:22:37 00:26:16 25° 265° (W) 00:29:51 145.980
QB50P2 02 Aug 00:22:55 00:27:12 78° 102° (ESE) 00:31:28 145.880/145.840
BEESAT 3 02 Aug 00:24:34 00:28:26 41° 306° (NW) 00:32:20 437.485
SPROUT 02 Aug 00:27:03 00:31:14 59° 75° (ENE) 00:35:27 437.525
RS-15 02 Aug 00:30:45 00:40:11 30° 327° (NNW) 00:49:42 29.354- 29.394
M-CUBED/EXP-1 PRIME 02 Aug 00:34:29 00:36:43 13° 302° (WNW) 00:38:43 437.505
TISAT 1 02 Aug 00:35:31 00:39:28 44° 74° (ENE) 00:43:28 437.305
ESTCUBE 1 02 Aug 00:37:39 00:41:28 25° 265° (W) 00:45:12 437.505/2401.250
ITUPSAT 1 02 Aug 00:45:43 00:46:33 11° 62° (ENE) 00:47:41 437.325
DUCHIFAT 1 02 Aug 00:46:31 00:50:42 60° 286° (WNW) 00:54:53 145.980
QB50P1 02 Aug 00:50:33 00:54:42 51° 286° (WNW) 00:58:50 145.935-145.965
NANOSAT C BR1 02 Aug 00:51:24 00:55:32 51° 286° (WNW) 00:59:40 145.865
TIGRISAT 02 Aug 00:56:45 01:00:18 21° 292° (WNW) 01:03:44 435.000
ANTELSAT 02 Aug 00:59:05 01:02:29 19° 293° (WNW) 01:05:45 437.575/2403.000
Cosmos 2491 02 Aug 01:15:58 01:23:52 39° 272° (W) 01:31:36 435.465 / 435.565
O/OREOS (USA 219) 02 Aug 01:17:40 01:21:35 31° 105° (ESE) 01:25:35 437.305
AIST 2 02 Aug 01:24:35 01:28:47 58° 304° (WNW) 01:33:00 435.215
BEESAT 2 02 Aug 01:25:35 01:28:10 16° 316° (NW) 01:30:39 435.950
YUBILEINY 02 Aug 01:34:01 01:42:39 64° 281° (W) 01:51:20 435.215
POLYITAN 1 02 Aug 01:35:14 01:38:08 17° 292° (WNW) 01:40:53 437.675
BEESAT 02 Aug 01:37:21 01:41:42 36° 71° (ENE) 01:46:07 436.000
PHONESAT 2.4 02 Aug 01:50:01 01:52:55 24° 210° (SSW) 01:55:46 2401.200-2431.200
BUGSAT 1 02 Aug 01:50:56 01:53:45 18° 292° (WNW) 01:56:26 437.445
POPSAT HIP 1 02 Aug 01:53:02 01:54:41 12° 295° (WNW) 01:56:08 437.405
SWISSCUBE 02 Aug 01:57:37 02:02:21 65° 75° (ENE) 02:07:08 437.505
SPROUT 02 Aug 02:06:47 02:07:47 10° 271° (W) 02:08:29 437.525
TISAT 1 02 Aug 02:13:17 02:15:31 14° 269° (W) 02:17:33 437.305
KKS-1 02 Aug 02:15:47 02:18:03 14° 66° (ENE) 02:20:32 437.445
ITUPSAT 1 02 Aug 02:19:01 02:23:50 84° 258° (WSW) 02:28:41 437.325
Oscar 19 02 Aug 02:20:29 02:25:29 47° 99° (E) 02:30:30 437.125/150
Cosmos 2504 02 Aug 02:35:38 02:42:04 39° 88° (E) 02:49:00 435.465 / 435.565
RS-15 02 Aug 02:50:59 02:57:56 17° 1° (N) 03:05:06 29.354- 29.394
O/OREOS (USA 219) 02 Aug 02:57:26 03:01:03 23° 301° (WNW) 03:04:38 437.305
ISS 02 Aug 03:06:57 03:09:49 28° 29° (NNE) 03:12:42 145.825
BEESAT 02 Aug 03:15:55 03:19:40 22° 267° (W) 03:23:18 436.000
STARS 02 Aug 03:20:41 03:24:48 42° 72° (ENE) 03:28:57 437.465
Gurwin Techsat 1B 02 Aug 03:27:32 03:32:49 62° 101° (E) 03:38:04 435.225
SWISSCUBE 02 Aug 03:38:43 03:40:45 12° 271° (W) 03:42:28 437.505
YUBILEINY 02 Aug 03:39:06 03:41:45 11° 305° (NW) 03:43:41 435.215
ITAMSAT 1 02 Aug 03:43:40 03:48:53 77° 104° (ESE) 03:54:02 435.822/435.867
KKS-1 02 Aug 03:49:59 03:54:18 51° 260° (W) 03:58:38 437.445
JAS-2 02 Aug 03:52:57 04:00:27 47° 96° (E) 04:07:49 435.910
Oscar 19 02 Aug 04:00:44 04:04:32 20° 294° (WNW) 04:08:12 437.125/150
AO-7 02 Aug 04:01:39 04:07:50 24° 92° (E) 04:14:20 29.400- 29.500
Cosmos 2504 02 Aug 04:27:51 04:34:20 35° 288° (WNW) 04:41:08 435.465 / 435.565
ISS 02 Aug 04:43:20 04:46:15 31° 226° (SW) 04:49:10 145.825
JUGNU 02 Aug 04:46:59 04:48:51 11° 178° (S) 04:50:43 437.505
MOZHAYETS 4 02 Aug 04:47:58 04:52:36 73° 75° (ENE) 04:57:15
HORYU 2 02 Aug 04:48:47 04:53:08 47° 99° (E) 04:57:28 437.375
STARS 02 Aug 04:58:45 05:01:29 16° 269° (W) 05:04:02 437.465
RS-15 02 Aug 05:05:41 05:15:38 32° 35° (NE) 05:26:11 29.354- 29.394
DANDE 02 Aug 05:08:43 05:12:01 72° 278° (W) 05:14:47 436.750
Gurwin Techsat 1B 02 Aug 05:08:58 05:12:20 17° 296° (WNW) 05:15:30 435.225
CUBESAT XI-V 02 Aug 05:11:59 05:13:01 11° 64° (ENE) 05:14:19 437.345
CUSAT 1 02 Aug 05:21:49 05:24:03 20° 283° (WNW) 05:26:06 437.405
ITAMSAT 1 02 Aug 05:25:20 05:27:48 13° 298° (WNW) 05:29:58 435.822/435.867
JAS-2 02 Aug 05:38:12 05:45:18 38° 293° (WNW) 05:52:10 435.910
AO-7 02 Aug 05:53:06 06:01:24 70° 291° (WNW) 06:09:37 29.400- 29.500
STRAND 1 02 Aug 06:07:08 06:09:51 15° 64° (ENE) 06:12:48 437.568
Cubesat XI-IV 02 Aug 06:07:27 06:07:29 10° 87° (E) 06:07:57 437.490
GONETS M04 02 Aug 06:15:39 06:24:04 58° 92° (E) 06:32:34
HORYU 2 02 Aug 06:26:33 06:29:25 16° 294° (WNW) 06:32:07 437.375
SRMSAT 02 Aug 06:40:58 06:42:49 11° 178° (S) 06:44:40 437.500
CUBESAT XI-V 02 Aug 06:45:12 06:49:54 77° 258° (WSW) 06:54:35 437.345
CUTE-I 02 Aug 06:58:59 07:03:49 36° 97° (E) 07:08:41 437.470
Cosmos 2499 02 Aug 07:10:00 07:15:51 27° 84° (E) 07:22:17 435.465 / 435.565
RS-15 02 Aug 07:17:56 07:29:49 88° 239° (WSW) 07:42:05 29.354- 29.394
PRISM 02 Aug 07:20:11 07:24:18 59° 75° (ENE) 07:28:26 437.425
Cubesat XI-IV 02 Aug 07:43:03 07:48:25 87° 288° (WNW) 07:53:44 437.490
STRAND 1 02 Aug 07:43:27 07:48:35 66° 259° (W) 07:53:42 437.568
AO-7 02 Aug 07:48:23 07:52:54 15° 309° (NW) 07:56:58 29.400- 29.500
BEESAT 2 02 Aug 08:06:25 08:09:42 23° 49° (NE) 08:13:01 435.950
BRITE-PL 02 Aug 08:13:06 08:16:45 25° 95° (E) 08:20:43 437.365/2234.400
GONETS M04 02 Aug 08:14:05 08:21:30 29° 292° (WNW) 08:28:40
HO-68 02 Aug 08:14:42 08:17:13 12° 86° (E) 08:20:19 435.675
GOMX 1 02 Aug 08:18:13 08:21:12 17° 92° (E) 08:24:28 467.674
CUTE-I 02 Aug 08:39:19 08:43:47 27° 293° (WNW) 08:48:08 437.470
AUBIESAT-1 02 Aug 08:40:13 08:42:13 14° 59° (ENE) 08:44:29 437.475
BEESAT 3 02 Aug 08:43:58 08:48:00 74° 58° (ENE) 08:51:59 437.485
PCSat 02 Aug 08:44:13 08:49:02 35° 111° (ESE) 08:53:57 145.827
PRISM 02 Aug 08:59:31 09:00:11 10° 271° (W) 09:00:34 437.425
Cosmos 2499 02 Aug 09:01:19 09:08:32 53° 284° (WNW) 09:16:18 435.465 / 435.565
COMPASS 1 02 Aug 09:15:36 09:18:34 19° 92° (E) 09:21:38 437.405
Cubesat XI-IV 02 Aug 09:26:15 09:27:49 11° 299° (WNW) 09:29:02 437.490
SEEDS 02 Aug 09:32:04 09:36:02 38° 97° (E) 09:39:59 437.485
RS-15 02 Aug 09:32:37 09:41:04 21° 258° (WSW) 09:48:53 29.354- 29.394
CUTE 1.7 + AOD 2 02 Aug 09:36:53 09:41:07 55° 100° (E) 09:45:18 437.475
DOVE 4 02 Aug 09:37:02 09:41:42 73° 101° (E) 09:46:40 437.250
CINEMA 3 02 Aug 09:37:14 09:41:29 32° 96° (E) 09:45:54 145.822/145.860
UNISAT 6 02 Aug 09:37:43 09:38:30 11° 63° (ENE) 09:39:34 437.425
SO-50 02 Aug 09:41:18 09:46:03 88° 308° (NW) 09:50:58 436.795
UWE-3 02 Aug 09:42:51 09:44:49 13° 89° (E) 09:47:04 435.000/436.395/437.385
BEESAT 2 02 Aug 09:44:11 09:47:47 30° 246° (WSW) 09:51:16 435.950
M-CUBED/EXP-1 PRIME 02 Aug 09:44:15 09:48:16 78° 71° (ENE) 09:52:41 437.505
CANX-2 02 Aug 09:45:25 09:49:45 79° 102° (ESE) 09:54:01 2200.000
Oscar 11 02 Aug 09:47:07 09:49:47 16° 91° (E) 09:52:36 145.826/435.025
AIST 2 02 Aug 09:47:30 09:51:38 58° 56° (ENE) 09:55:42 435.215
BRITE-PL 02 Aug 09:51:27 09:55:18 29° 288° (WNW) 09:59:17 437.365/2234.400
YUBILEINY 02 Aug 09:54:01 09:55:11 10° 54° (NE) 09:57:08 435.215
AAUSAT CUBESAT 2 02 Aug 09:55:03 09:59:06 46° 98° (E) 10:03:08 437.432
GOMX 1 02 Aug 09:55:10 09:59:31 44° 286° (WNW) 10:04:09 467.674
HO-68 02 Aug 09:58:55 10:06:09 82° 105° (ESE) 10:13:22 435.675
CUBEBUG 2 02 Aug 09:59:39 10:03:31 26° 94° (E) 10:07:31 437.445
AUBIESAT-1 02 Aug 10:12:25 10:16:24 57° 256° (WSW) 10:20:43 437.475
TIGRISAT 02 Aug 10:17:18 10:20:57 27° 70° (ENE) 10:24:46 435.000
ANTELSAT 02 Aug 10:19:32 10:23:20 30° 70° (ENE) 10:27:16 437.575/2403.000
PCSat 02 Aug 10:27:39 10:32:29 32° 308° (NW) 10:37:17 145.827
ZACube-1 02 Aug 10:50:14 10:54:43 54° 100° (E) 10:59:13 437.345
COMPASS 1 02 Aug 10:50:32 10:54:20 32° 288° (WNW) 10:58:04 437.405
POLYITAN 1 02 Aug 10:50:35 10:53:59 25° 70° (ENE) 10:57:29 437.675
BUGSAT 1 02 Aug 11:04:12 11:07:11 20° 69° (ENE) 11:10:14 437.445
POPSAT HIP 1 02 Aug 11:06:36 11:10:25 36° 72° (ENE) 11:14:19 437.405
DELFI C3 02 Aug 11:06:42 11:10:47 87° 277° (W) 11:14:49 145.870
SEEDS 02 Aug 11:08:40 11:11:33 17° 292° (WNW) 11:14:17 437.485
UNISAT 6 02 Aug 11:10:23 11:14:43 71° 259° (W) 11:19:11 437.425
FUNcube-1 02 Aug 11:11:13 11:15:48 89° 84° (E) 11:20:24 145.935
QB50P2 02 Aug 11:14:25 11:18:26 47° 74° (ENE) 11:22:30 145.880/145.840
CUTE 1.7 + AOD 2 02 Aug 11:14:36 11:16:35 13° 294° (WNW) 11:18:23 437.475
CINEMA 3 02 Aug 11:14:39 11:18:33 25° 290° (WNW) 11:22:29 145.822/145.860
UWE-3 02 Aug 11:17:12 11:21:46 59° 285° (WNW) 11:26:21 435.000/436.395/437.385
DOVE 4 02 Aug 11:17:12 11:19:02 12° 294° (WNW) 11:20:38 437.250
Oscar 11 02 Aug 11:22:05 11:26:11 40° 287° (WNW) 11:30:14 145.826/435.025
UKube-1 02 Aug 11:23:41 11:27:24 28° 96° (E) 11:31:09 .
SO-50 02 Aug 11:24:47 11:27:24 14° 321° (NW) 11:29:53 436.795
HUMSAT D 02 Aug 11:25:40 11:29:55 53° 99° (E) 11:34:09 437.325/437.525
AIST 2 02 Aug 11:28:11 11:29:45 12° 251° (WSW) 11:31:04 435.215
O/OREOS (USA 219) 02 Aug 11:28:20 11:32:48 50° 65° (ENE) 11:37:17 437.305
AAUSAT CUBESAT 2 02 Aug 11:32:00 11:34:21 14° 293° (WNW) 11:36:30 437.432
AISAT 02 Aug 11:35:15 11:38:54 26° 95° (E) 11:42:37 437.250
CUBEBUG 2 02 Aug 11:36:05 11:40:11 30° 289° (WNW) 11:44:16 437.445
DUCHIFAT 1 02 Aug 11:37:10 11:41:20 83° 77° (ENE) 11:45:33 145.980
QB50P1 02 Aug 11:41:32 11:45:44 84° 261° (W) 11:49:58 145.935-145.965
NANOSAT C BR1 02 Aug 11:42:11 11:46:22 84° 257° (WSW) 11:50:35 145.865
CUBEBUG 1 02 Aug 11:45:28 11:48:24 18° 93° (E) 11:51:28 437.445
YUBILEINY 02 Aug 11:45:41 11:54:24 61° 78° (ENE) 12:03:08 435.215
HO-68 02 Aug 11:48:16 11:53:09 19° 302° (WNW) 11:57:45 435.675
DX 1 02 Aug 11:53:33 11:57:54 70° 102° (ESE) 12:02:13 434.975-435.025
TIGRISAT 02 Aug 11:54:08 11:57:43 24° 266° (W) 12:01:17 435.000
ANTELSAT 02 Aug 11:56:43 12:00:10 22° 267° (W) 12:03:35 437.575/2403.000
VELOX 1 02 Aug 12:13:18 12:17:41 67° 101° (ESE) 12:22:05 145.980
SPROUT 02 Aug 12:17:13 12:18:32 11° 89° (E) 12:20:06 437.525
Cosmos 2491 02 Aug 12:18:05 12:26:24 52° 91° (E) 12:34:49 435.465 / 435.565
Cosmos 2504 02 Aug 12:24:57 12:27:56 13° 58° (ENE) 12:31:38 435.465 / 435.565
50 SAT 02 Aug 12:25:33 12:29:31 64° 284° (WNW) 12:33:26 437.505
POLYITAN 1 02 Aug 12:26:21 12:29:50 25° 265° (W) 12:33:17 437.675
ZACube-1 02 Aug 12:28:01 12:30:40 15° 294° (WNW) 12:33:07 437.345
ESTCUBE 1 02 Aug 12:30:40 12:35:10 74° 101° (ESE) 12:39:38 437.505/2401.250
AIST 1 02 Aug 12:31:39 12:36:01 88° 91° (E) 12:40:22
BUGSAT 1 02 Aug 12:38:59 12:42:31 28° 264° (W) 12:45:59 437.445
POPSAT HIP 1 02 Aug 12:43:42 12:46:28 17° 268° (W) 12:49:06 437.405
QB50P2 02 Aug 12:52:35 12:54:39 13° 270° (W) 12:56:30 145.880/145.840
UKube-1 02 Aug 12:59:56 13:03:26 23° 291° (WNW) 13:06:48 .
HUMSAT D 02 Aug 13:03:00 13:05:14 14° 294° (WNW) 13:07:17 437.325/437.525
O/OREOS (USA 219) 02 Aug 13:09:15 13:11:51 15° 260° (W) 13:14:14 437.305
AISAT 02 Aug 13:11:42 13:15:26 27° 290° (WNW) 13:19:06 437.250
Gurwin Techsat 1B 02 Aug 13:12:18 13:13:17 11° 61° (ENE) 13:14:37 435.225
CUBEBUG 1 02 Aug 13:20:55 13:24:54 35° 288° (WNW) 13:28:50 437.445
ITAMSAT 1 02 Aug 13:24:33 13:26:34 13° 62° (ENE) 13:28:53 435.822/435.867
DX 1 02 Aug 13:32:38 13:33:38 11° 296° (WNW) 13:34:22 434.975-435.025
Oscar 19 02 Aug 13:35:59 13:41:00 60° 74° (ENE) 13:46:04 437.125/150
YUBILEINY 02 Aug 13:43:33 13:50:42 27° 276° (W) 13:57:32 435.215
SPROUT 02 Aug 13:50:48 13:55:01 56° 286° (WNW) 13:59:13 437.525
VELOX 1 02 Aug 13:52:16 13:53:45 11° 296° (WNW) 13:54:59 145.980
TISAT 1 02 Aug 13:56:28 14:00:42 81° 286° (WNW) 14:04:55 437.305
SWISSCUBE 02 Aug 14:00:21 14:03:33 18° 92° (E) 14:06:55 437.505
JAS-2 02 Aug 14:06:04 14:09:45 17° 58° (ENE) 14:13:59 435.910
ESTCUBE 1 02 Aug 14:10:25 14:11:30 11° 296° (WNW) 14:12:19 437.505/2401.250
Cosmos 2504 02 Aug 14:13:35 14:22:01 68° 80° (E) 14:30:37 435.465 / 435.565
CUSAT 1 02 Aug 14:14:55 14:16:25 12° 72° (ENE) 14:18:21 437.405
Cosmos 2491 02 Aug 14:15:55 14:23:40 33° 290° (WNW) 14:31:14 435.465 / 435.565
ITUPSAT 1 02 Aug 14:21:29 14:25:31 27° 95° (E) 14:29:35 437.325
Gurwin Techsat 1B 02 Aug 14:47:14 14:52:33 85° 77° (ENE) 14:57:55 435.225
AO-7 02 Aug 14:59:14 15:06:11 32° 60° (ENE) 15:13:20 29.400- 29.500
ITAMSAT 1 02 Aug 15:00:15 15:05:28 81° 257° (WSW) 15:10:43 435.822/435.867
BEESAT 02 Aug 15:16:05 15:20:52 77° 286° (WNW) 15:25:37 436.000
Oscar 19 02 Aug 15:17:56 15:20:51 15° 270° (W) 15:23:31 437.125/150
SWISSCUBE 02 Aug 15:37:07 15:41:39 43° 288° (WNW) 15:46:07 437.505
KKS-1 02 Aug 15:42:28 15:46:28 32° 97° (E) 15:50:29 437.445
HORYU 2 02 Aug 15:45:44 15:49:48 36° 71° (ENE) 15:53:56 437.375
DANDE 02 Aug 15:46:11 15:50:08 62° 81° (E) 15:55:27 436.750
JAS-2 02 Aug 15:47:46 15:53:50 84° 257° (WSW) 16:00:49 435.910
CUSAT 1 02 Aug 15:54:35 15:59:00 68° 261° (W) 16:04:54 437.405
ITUPSAT 1 02 Aug 15:59:14 16:03:23 29° 291° (WNW) 16:07:26 437.325
Cosmos 2504 02 Aug 16:07:02 16:13:38 25° 276° (W) 16:19:57 435.465 / 435.565
GONETS M04 02 Aug 16:28:03 16:34:58 27° 67° (ENE) 16:42:10
Gurwin Techsat 1B 02 Aug 16:32:14 16:33:20 10° 273° (W) 16:34:01 435.225
SO-50 02 Aug 16:36:41 16:37:23 10° 35° (NE) 16:38:17 436.795
MOZHAYETS 4 02 Aug 16:45:27 16:48:40 19° 92° (E) 16:52:01
STARS 02 Aug 16:47:33 16:51:59 79° 284° (WNW) 16:56:25 437.465
AO-7 02 Aug 16:50:20 16:58:35 59° 258° (WSW) 17:06:49 29.400- 29.500
KKS-1 02 Aug 17:19:26 17:22:56 22° 291° (WNW) 17:26:19 437.445
HORYU 2 02 Aug 17:23:21 17:26:35 19° 267° (W) 17:29:42 437.375
Cubesat XI-IV 02 Aug 17:26:10 17:29:29 17° 64° (ENE) 17:33:00 437.490
DANDE 02 Aug 17:32:46 17:33:19 10° 265° (W) 17:33:32 436.750
PCSat 02 Aug 17:33:24 17:37:40 24° 49° (NE) 17:42:02 145.827
JAS-2 02 Aug 17:38:21 17:40:23 11° 279° (W) 17:41:56 435.910
VERMONT LUNAR 02 Aug 17:51:57 17:54:52 35° 155° (SSE) 17:57:50 437.305
SO-50 02 Aug 18:14:11 18:19:05 58° 55° (NE) 18:23:52 436.795
CUTE-I 02 Aug 18:19:22 18:24:33 52° 72° (ENE) 18:29:46 437.470
MOZHAYETS 4 02 Aug 18:21:46 18:26:04 38° 288° (WNW) 18:30:19
GONETS M04 02 Aug 18:23:57 18:32:33 64° 267° (W) 18:41:07
PHONESAT 2.4 02 Aug 18:35:19 18:36:48 12° 145° (SE) 18:38:24 2401.200-2431.200
CUBESAT XI-V 02 Aug 18:43:41 18:47:37 28° 95° (E) 18:51:38 437.345
Cosmos 2499 02 Aug 18:52:50 19:01:23 54° 77° (ENE) 19:10:03 435.465 / 435.565
Cubesat XI-IV 02 Aug 19:03:50 19:09:08 61° 259° (WSW) 19:14:28 437.490
PCSat 02 Aug 19:16:10 19:21:25 51° 247° (WSW) 19:26:37 145.827
BRITE-PL 02 Aug 19:23:38 19:27:02 23° 71° (ENE) 19:30:25 437.365/2234.400
GOMX 1 02 Aug 19:26:44 19:28:51 14° 67° (ENE) 19:31:06 467.674
VERMONT LUNAR 02 Aug 19:28:19 19:31:29 72° 350° (N) 19:34:40 437.305
RS-15 02 Aug 19:35:43 19:39:25 13° 99° (E) 19:44:15 29.354- 29.394
ISS 02 Aug 19:46:26 19:48:19 15° 130° (SE) 19:50:17 145.825
STRAND 1 02 Aug 19:55:26 20:00:20 46° 99° (E) 20:05:13 437.568
SO-50 02 Aug 19:56:07 19:59:11 16° 251° (WSW) 20:02:00 436.795
CUTE-I 02 Aug 20:01:14 20:04:59 18° 269° (W) 20:08:33 437.470
COMPASS 1 02 Aug 20:07:04 20:08:34 12° 66° (ENE) 20:10:18 437.405
PHONESAT 2.4 02 Aug 20:10:54 20:14:20 54° 159° (SSE) 20:17:46 2401.200-2431.200
CUBESAT XI-V 02 Aug 20:21:10 20:25:00 26° 290° (WNW) 20:28:44 437.345
SEEDS 02 Aug 20:23:09 20:26:28 23° 70° (ENE) 20:29:54 437.485
HO-68 02 Aug 20:25:45 20:32:37 54° 69° (ENE) 20:39:33 435.675
CUTE 1.7 + AOD 2 02 Aug 20:28:28 20:32:16 33° 72° (ENE) 20:36:09 437.475
CANX-2 02 Aug 20:36:50 20:40:55 46° 73° (ENE) 20:45:03 2200.000
CINEMA 3 02 Aug 20:38:43 20:41:55 22° 69° (ENE) 20:45:16 145.822/145.860
PRISM 02 Aug 20:38:56 20:43:02 67° 285° (WNW) 20:47:05 437.425
Oscar 11 02 Aug 20:42:11 20:43:34 12° 65° (ENE) 20:45:12 145.826/435.025
